GFSNW_prec_cloud_225.txt.gz
Cloud_Cover
0 0 1 2 5 1 0 0 5 2 2 10 83 37 5 2 0 0 0 0 5 8 100 100 100 100 100 100 100 100 100 22 49 6 97 100 100 100 100 100 100 100 100 16
5 1 5 5 5 5 1 20 21 5 5 5 56 32 5 5 1 0 4 3 6 5 5 71 100 100 100 100 100 100 99 92 17 5 78 100 100 100 100 100 100 100 100 54
4 4 4 5 4 5 2 6 5 5 26 15 32 62 24 5 3 3 5 14 5 22 15 64 76 100 100 100 100 100 100 72 97 46 90 100 100 100 100 100 100 100 100 51
2 5 4 5 5 5 5 58 13 5 53 6 9 33 7 5 5 3 5 5 99 99 93 96 7 45 100 100 100 100 100 100 100 100 100 100 60 24 99 100 94 100 6 74
5 5 5 4 5 5 5 33 72 48 6 5 21 28 46 5 5 5 5 6 5 60 80 79 81 42 72 89 100 100 100 28 100 100 100 100 51 10 44 45 91 100 74 27
5 5 5 5 5 5 15 93 6 8 11 11 21 21 14 5 17 8 5 5 5 5 94 11 5 5 5 4 5 100 100 99 100 89 100 100 97 4 6 36 41 100 97 5
5 5 5 5 8 5 5 12 79 94 48 19 14 5 5 5 19 79 5 5 6 5 5 5 5 11 21 22 6 32 5 31 98 67 100 100 3 9 9 5 5 17 81 15
15 5 5 5 5 6 58 77 100 100 98 93 54 5 60 5 5 5 5 13 6 47 5 79 79 86 53 56 6 5 6 17 99 99 61 55 4 0 96 94 36 79 57 4
96 34 19 6 5 21 7 14 41 100 100 45 6 6 5 17 32 10 12 97 21 53 57 96 98 95 99 31 59 50 5 44 92 100 100 88 0 0 78 100 50 10 82 100
100 100 57 50 92 57 74 100 46 61 100 11 5 18 5 5 18 53 20 18 6 56 64 93 100 97 92 100 99 100 100 100 100 100 100 34 0 0 9 46 17 0 97 100
63 98 100 100 100 100 100 94 87 100 100 76 5 4 18 25 34 99 86 40 20 76 100 92 85 100 71 99 100 100 100 100 100 100 100 88 78 21 10 3 1 0 1 71
69 5 9 37 97 100 100 100 100 100 100 100 6 5 5 7 2 5 83 96 49 97 92 98 100 100 100 99 100 100 100 100 100 100 6 0 4 1 5 5 4 46 64 0
100 100 100 90 28 91 90 100 100 100 100 94 44 3 0 4 1 2 98 47 87 94 38 95 98 100 33 96 82 14 100 100 99 100 50 18 5 5 2 2 89 5 0 1
100 100 100 100 100 100 100 100 82 84 100 98 93 4 0 3 3 1 5 5 4 12 83 100 100 100 74 98 98 100 100 100 100 89 82 24 42 5 4 2 1 17 98 86
100 100 100 100 100 100 100 100 100 100 72 56 100 60 0 2 5 0 5 5 19 94 100 100 100 100 99 93 90 100 100 100 100 99 88 96 61 11 24 5 48 100 47 94
94 100 100 100 100 100 100 94 14 9 95 100 87 92 5 3 5 4 4 5 66 100 100 100 100 100 100 100 96 100 100 100 84 33 78 19 34 15 26 5 10 92 100 100
100 100 100 100 100 100 100 25 94 100 100 100 96 99 5 12 24 21 66 72 98 100 100 100 100 100 100 100 92 60 98 92 56 64 82 92 29 14 5 8 100 100 100 100
100 100 100 100 100 98 100 49 8 98 89 100 99 68 5 26 80 54 96 100 100 100 100 100 100 100 100 90 18 41 100 100 100 67 56 41 95 71 25 90 100 100 100 100
100 100 100 100 100 100 20 51 59 92 94 50 74 14 29 49 99 100 95 100 100 94 100 100 100 99 100 97 38 100 99 73 90 100 100 82 5 6 5 100 100 100 100 100
100 100 100 100 99 46 33 96 100 100 100 100 96 85 32 15 99 99 95 98 100 100 51 75 100 79 100 90 79 99 100 71 67 100 100 97 59 29 65 100 100 100 100 100
100 100 98 70 99 100 100 100 100 100 100 100 95 38 25 33 62 96 89 91 99 95 43 88 85 88 100 100 100 93 97 100 98 100 100 100 100 100 100 100 100 100 100 100
92 100 100 100 98 100 100 100 98 100 74 5 29 100 67 48 80 100 100 99 79 94 92 100 87 97 100 100 100 55 100 99 100 100 100 100 100 100 100 100 100 100 100 100
100 100 100 100 100 100 99 100 100 99 19 5 35 100 100 100 100 100 100 100 73 41 100 88 85 67 91 100 100 100 57 100 100 100 100 100 100 100 100 100 100 100 100 100
100 100 100 100 100 100 100 100 100 100 82 49 100 75 95 100 100 100 100 100 37 94 99 5 6 85 53 90 94 100 86 100 100 100 100 100 100 100 100 100 100 100 100 100
100 100 100 100 100 100 100 100 100 100 99 88 79 79 86 100 100 99 100 100 100 41 5 5 15 65 72 50 34 99 100 100 100 100 100 100 100 100 100 100 100 100 100 100
100 100 100 100 100 100 100 100 100 100 100 100 100 82 100 100 100 99 100 100 71 5 5 6 5 17 86 24 82 100 100 100 100 100 100 100 100 100 100 100 100 100 100 100
62 100 100 100 100 100 100 100 100 100 100 100 100 100 99 100 100 100 100 100 92 18 5 27 8 11 41 100 100 100 100 96 100 96 100 100 100 100 100 100 100 100 100 100

GFSNW_prec_cloud_228.txt.gz
Cloud_Cover
5 5 5 1 0 0 0 0 4 0 0 12 89 15 5 2 0 0 0 5 6 0 5 88 100 100 100 100 100 100 100 78 56 4 94 100 100 100 100 100 100 100 100 97
5 5 5 4 4 0 0 21 38 0 0 8 66 5 5 5 3 1 1 0 5 5 5 3 96 100 99 100 100 100 79 90 43 25 9 100 100 100 100 97 100 100 100 100
5 5 5 5 5 2 0 6 5 5 5 5 5 13 35 5 2 3 5 3 5 5 6 6 4 83 100 100 100 100 100 50 100 42 90 94 25 73 100 100 100 100 81 93
5 5 5 5 5 4 1 54 5 7 49 6 17 5 10 13 5 2 4 5 12 85 72 54 26 5 58 100 100 100 100 86 100 100 100 100 46 5 92 100 62 99 2 15
5 5 5 5 5 5 5 8 8 75 12 5 6 40 68 5 5 5 5 6 50 19 44 43 21 6 9 5 68 100 76 70 94 100 100 100 90 58 4 5 56 100 82 64
5 5 5 5 5 5 17 91 10 10 11 14 31 26 7 5 5 1 5 5 5 9 5 4 5 5 5 5 41 25 91 100 100 15 100 100 49 0 18 98 66 9 41 13
24 5 5 5 5 5 5 13 60 89 55 26 10 5 5 5 5 88 5 5 15 5 5 5 5 6 32 24 12 13 97 100 100 63 100 95 2 4 22 9 15 100 68 2
64 41 48 5 5 21 85 65 99 100 97 36 33 5 5 5 5 6 5 4 5 5 4 12 50 36 80 68 6 38 100 100 100 100 97 2 0 0 1 94 24 66 2 0
32 100 100 99 6 5 33 68 96 100 100 23 5 5 14 86 59 11 5 1 18 5 12 98 94 66 93 100 100 100 100 100 100 100 100 82 0 0 1 41 3 0 7 4
100 100 100 100 100 100 87 98 93 89 100 57 5 7 5 5 26 42 5 5 4 4 96 95 71 66 12 99 100 100 100 100 100 100 100 16 8 10 4 35 0 2 0 0
6 57 100 100 100 100 100 100 100 100 100 61 35 41 61 18 92 80 36 47 4 59 99 97 21 99 56 87 100 100 52 100 74 100 100 76 33 23 4 3 0 1 0 0
100 94 85 93 100 100 100 100 99 100 100 97 8 7 5 5 6 78 100 81 22 6 99 98 100 76 67 94 93 100 91 100 100 100 35 8 64 96 100 100 99 16 48 4
100 100 100 100 100 100 100 100 100 99 100 90 33 42 3 2 4 8 99 61 89 58 6 35 46 97 25 70 26 9 100 100 100 100 100 50 5 5 56 9 23 61 11 5
100 100 100 100 100 100 100 100 100 100 88 100 74 1 0 0 2 4 4 5 5 44 86 100 100 87 14 98 21 100 100 97 94 86 100 23 46 21 23 85 79 5 5 4
100 94 100 100 100 100 100 100 100 100 99 76 99 83 3 1 0 0 1 14 81 98 100 100 98 69 88 52 71 100 100 86 90 83 100 56 100 26 6 45 45 5 49 5
100 99 100 100 100 100 100 97 6 52 100 100 100 60 17 4 3 4 5 5 100 100 100 100 96 6 100 100 94 100 85 11 68 51 98 100 100 100 85 5 5 5 5 7
100 100 100 100 100 100 100 32 94 99 100 100 91 70 100 18 27 15 26 16 93 100 100 100 100 69 100 100 87 99 96 100 91 94 99 80 92 8 98 95 8 42 5 17
100 100 100 100 100 96 90 73 96 100 100 100 100 61 84 77 79 78 100 100 100 100 100 100 100 84 100 92 93 28 7 88 100 100 95 92 96 100 86 58 8 5 33 54
100 100 100 100 100 97 94 85 39 99 100 97 72 74 6 47 74 95 94 97 100 84 100 97 100 85 100 54 13 5 5 40 73 98 94 38 98 100 100 100 64 71 100 54
100 100 100 100 100 100 61 100 100 100 100 100 98 55 5 18 56 72 88 93 100 100 73 99 100 44 5 47 32 6 62 100 90 100 100 100 100 100 100 100 100 100 100 100
100 100 100 89 100 100 100 100 100 100 100 83 88 5 5 19 60 100 88 100 100 100 78 99 87 75 100 100 100 100 99 48 88 99 100 100 100 100 100 100 100 100 100 100
100 100 100 100 100 100 100 100 96 100 100 97 96 100 98 85 95 92 93 100 100 97 80 100 54 7 8 47 98 100 100 100 100 100 100 100 100 100 100 100 100 100 100 100
100 100 100 100 92 100 100 100 100 100 100 100 97 96 87 70 98 100 100 98 100 100 100 92 8 6 2 5 49 80 100 100 100 100 100 100 100 100 100 100 100 100 100 100
100 92 99 100 100 100 100 100 100 100 99 98 92 75 96 100 100 100 100 89 100 100 100 75 28 5 0 5 5 34 71 100 100 100 100 100 100 100 100 100 100 100 100 100
100 80 100 100 100 100 100 100 100 100 96 70 89 83 73 100 100 92 99 100 100 100 90 100 28 5 33 46 6 100 99 100 100 100 100 97 100 100 100 100 100 100 100 100
93 77 100 100 100 100 100 100 100 100 100 100 61 92 92 99 100 100 99 100 100 92 100 100 92 7 52 9 8 100 100 100 100 100 100 89 100 100 100 100 100 100 100 100
68 95 100 100 100 100 100 74 100 100 61 87 100 100 100 29 72 90 100 100 100 51 86 89 57 7 15 5 44 100 100 100 96 100 98 94 100 100 100 100 100 100 100 100

GFSNW_prec_cloud_231.txt.gz
Cloud_Cover
5 12 5 3 5 4 2 0 0 0 0 4 91 6 5 5 2 0 0 3 5 4 0 2 4 90 100 100 100 91 98 8 5 4 1 100 100 100 100 100 100 100 100 47
5 5 5 5 5 4 5 5 12 0 0 5 5 5 5 5 0 0 0 4 5 5 5 13 0 1 74 72 93 92 45 50 5 5 65 75 100 100 100 100 100 100 100 100
5 4 5 5 5 5 5 5 5 5 5 6 5 6 5 5 1 4 1 5 5 6 5 24 4 5 0 77 98 85 77 88 76 22 11 53 5 86 100 100 100 100 100 100
5 5 5 3 5 5 3 19 5 5 5 5 5 7 19 49 5 0 0 3 5 50 34 5 36 5 9 5 24 90 50 97 100 99 68 69 5 5 5 82 100 100 100 100
5 5 5 0 5 5 5 6 7 87 9 5 20 64 87 12 5 5 4 5 5 5 90 21 55 5 36 59 1 6 41 94 100 100 97 9 5 5 0 3 5 35 56 95
5 5 5 4 5 5 19 83 17 5 5 8 16 17 5 5 5 3 29 14 99 76 5 5 5 5 5 5 49 90 100 100 100 82 61 100 38 0 0 0 0 1 1 0
52 57 5 5 4 5 5 17 44 71 18 10 15 5 5 5 5 63 5 5 62 4 31 32 2 4 13 27 14 5 88 100 100 89 54 90 0 0 0 0 0 4 2 0
90 32 96 30 5 38 92 91 100 99 77 5 11 5 5 5 5 5 8 5 2 5 5 5 5 5 4 5 6 28 100 94 100 100 90 14 0 0 0 2 0 1 2 4
100 100 100 100 88 6 66 60 100 100 100 48 5 59 44 72 80 18 5 1 0 0 6 98 90 15 5 5 67 100 100 100 100 100 100 84 6 7 5 5 0 3 0 0
100 100 100 100 100 100 98 99 99 97 100 94 76 86 57 17 8 22 5 5 4 5 73 100 79 12 5 8 64 74 99 100 100 100 100 27 5 99 6 34 4 4 0 5
100 97 100 100 100 100 100 100 100 100 100 88 41 37 94 92 86 95 31 74 5 40 100 100 34 99 5 58 33 67 100 98 99 100 100 77 3 11 59 66 37 53 2 0
100 100 100 100 100 100 100 96 84 96 100 100 99 97 36 33 6 72 100 89 64 7 80 81 99 83 54 5 14 98 7 48 8 87 17 84 97 100 99 97 21 56 64 5
100 100 100 100 100 100 100 100 100 100 99 100 9 4 2 4 5 82 98 96 42 91 64 81 90 99 28 95 56 9 48 89 25 79 100 93 96 100 100 98 16 11 73 60
100 100 100 100 100 100 100 100 100 100 100 100 99 8 0 0 10 81 21 5 88 93 100 100 100 94 29 75 26 94 100 90 92 70 100 65 100 100 80 7 23 5 5 5
100 100 100 100 100 100 94 90 94 100 65 55 100 71 2 0 5 5 9 53 90 100 100 100 96 83 97 73 90 86 100 86 99 33 10 93 100 90 100 57 5 5 55 20
100 100 100 100 100 100 100 100 61 100 100 100 99 100 38 5 5 1 6 86 100 100 100 97 61 39 100 99 98 79 100 28 5 5 11 64 100 100 94 64 34 5 7 6
100 100 100 100 100 99 89 28 56 100 100 100 92 100 64 5 44 33 10 9 100 100 100 100 78 93 100 100 80 73 100 5 21 100 100 85 71 76 24 24 77 100 96 10
100 100 100 100 100 100 100 99 100 94 100 100 100 100 86 28 76 99 93 100 100 100 94 90 98 95 100 84 23 36 98 14 67 99 89 100 100 100 91 100 100 100 100 97
100 100 100 100 100 100 100 100 96 100 84 98 94 96 23 29 86 100 90 100 100 88 100 99 97 73 63 5 32 75 100 95 55 24 70 86 100 100 100 100 100 100 100 100
100 100 100 100 100 100 100 100 100 100 100 100 97 45 5 9 71 66 61 78 100 99 98 89 100 16 71 32 99 44 100 76 66 100 100 100 100 100 100 100 100 100 100 100
100 100 100 99 99 100 100 100 100 100 100 45 69 19 74 92 94 86 72 92 79 84 100 99 93 51 91 5 80 100 100 100 100 100 100 100 100 100 100 100 100 100 100 100
100 100 100 100 100 100 100 99 87 96 56 68 51 39 31 65 69 55 68 70 86 76 100 100 67 81 58 57 9 6 79 100 100 100 100 100 99 100 100 100 100 100 100 100
100 100 100 99 100 100 100 81 96 87 18 10 45 92 87 97 99 100 98 100 82 100 100 98 19 14 7 54 58 99 99 100 100 100 99 87 100 88 100 100 100 100 100 100
100 89 98 100 100 96 100 98 57 30 91 100 100 97 99 100 100 100 100 100 84 100 100 100 31 52 6 24 41 46 100 83 100 100 91 92 100 100 100 100 100 100 100 100
100 100 100 100 100 100 100 98 83 98 97 93 48 69 94 100 100 98 92 100 100 100 100 100 53 8 16 60 34 100 100 78 100 100 93 81 100 100 100 100 100 100 100 100
98 85 100 100 100 100 99 60 64 72 90 88 100 92 97 100 83 95 74 100 100 100 100 97 37 56 61 100 88 60 98 97 100 98 91 99 100 100 100 100 100 100 100 100
76 100 100 100 100 100 97 94 91 83 69 100 100 100 93 98 100 100 100 100 100 100 100 64 86 100 66 100 68 28 87 100 100 95 96 93 100 100 100 100 100 100 100 100

GFSNW_prec_cloud_234.txt.gz
Cloud_Cover
0 1 5 4 5 5 3 0 46 0 0 11 39 57 5 2 5 5 5 6 42 8 66 9 80 36 8 99 76 100 94 66 74 89 0 2 100 100 100 100 100 100 97 45
1 3 3 5 5 5 4 5 2 2 1 5 5 6 5 5 5 5 5 77 62 70 100 66 31 44 29 22 66 33 38 66 85 100 87 40 27 83 100 76 100 100 100 100
5 5 5 2 5 5 4 23 75 59 6 5 5 5 5 5 2 5 5 6 35 100 70 95 16 97 13 4 5 40 90 61 56 82 89 100 89 79 64 56 95 68 100 94
5 5 64 5 2 5 4 28 50 5 41 42 5 5 5 5 5 5 5 95 97 98 73 9 52 93 20 5 2 5 78 92 67 5 5 25 73 41 15 27 9 83 3 90
5 5 57 5 5 5 5 90 8 5 5 5 5 30 45 5 48 55 28 98 100 100 100 100 78 99 57 82 33 84 5 6 58 5 5 3 1 0 0 0 5 52 5 4
8 9 22 5 5 5 38 12 3 5 24 19 25 26 8 40 99 22 46 98 100 100 100 30 14 60 12 6 18 72 99 96 100 43 47 48 6 0 0 0 0 4 4 0
48 78 41 5 5 11 52 5 20 56 49 24 24 5 5 12 36 98 88 98 99 81 84 5 5 3 1 0 0 66 100 100 100 100 100 92 16 1 0 0 0 0 0 0
100 54 7 66 100 50 94 74 91 62 68 66 20 25 5 5 46 6 6 5 14 29 9 74 14 4 4 2 3 9 88 100 100 100 100 74 58 22 0 0 0 56 5 0
100 100 100 100 100 95 48 74 96 99 85 64 6 69 78 72 92 52 5 5 5 5 9 99 30 6 4 1 3 5 37 100 100 100 100 100 100 12 6 4 1 0 5 5
100 100 100 100 100 100 78 57 50 97 100 51 82 90 91 92 98 95 87 98 98 78 100 98 97 6 36 8 15 61 77 100 86 100 100 99 100 20 57 92 52 94 72 36
90 100 100 100 100 100 100 98 92 99 100 91 98 96 98 100 99 100 73 94 95 100 100 98 100 86 97 100 100 100 100 100 100 99 100 98 96 56 86 95 98 98 50 99
100 100 100 100 100 100 100 100 48 89 99 66 93 42 57 24 33 98 100 55 99 100 100 100 100 99 99 100 95 72 60 100 100 88 82 100 78 100 98 100 100 100 100 100
100 100 100 100 100 100 100 100 100 62 70 57 96 9 4 12 33 73 100 75 90 100 100 100 100 100 97 92 83 100 99 99 100 100 46 97 100 98 100 96 100 100 100 100
100 100 100 100 100 100 100 100 87 83 74 94 100 22 2 0 0 5 44 69 87 100 98 99 99 100 99 80 90 88 41 93 46 73 41 75 99 100 100 100 92 94 96 99
100 100 100 100 100 100 100 100 100 97 50 83 96 99 5 2 4 5 24 100 100 100 100 100 96 100 100 90 96 9 76 86 100 14 17 100 34 73 85 100 98 100 100 78
100 100 100 100 100 100 100 100 100 96 100 100 100 100 90 3 5 20 96 100 100 100 100 100 68 100 100 90 78 73 55 98 95 58 100 100 98 68 62 100 100 100 100 100
100 100 100 100 100 100 100 100 100 98 100 100 100 100 68 5 55 96 83 100 100 100 100 100 92 95 100 100 78 92 100 57 36 52 96 81 90 92 51 94 90 100 98 100
100 100 100 100 100 100 100 100 100 100 100 100 99 100 9 36 90 100 93 100 100 100 96 92 95 100 100 89 20 55 57 55 71 99 100 78 80 99 74 99 100 100 100 100
100 100 100 100 100 100 100 100 100 100 100 100 100 75 24 50 76 65 96 100 100 74 99 100 97 98 90 32 18 100 86 16 14 78 73 25 82 100 100 99 68 100 100 100
100 100 100 100 100 100 100 100 100 100 100 100 63 84 29 7 48 97 69 100 100 100 100 100 98 19 4 5 5 61 38 21 76 100 20 100 100 100 100 100 100 100 100 100
100 100 100 100 100 100 100 100 99 100 100 65 60 18 83 93 89 98 100 99 99 100 100 88 100 30 31 12 5 8 13 32 90 100 100 100 97 100 100 100 100 100 100 100
100 100 100 100 100 100 100 95 100 100 82 98 88 80 78 94 94 100 100 98 100 100 60 95 98 92 86 13 28 32 44 50 48 100 100 75 100 100 100 100 100 100 100 100
100 100 100 100 100 100 100 100 100 100 99 82 95 100 93 100 94 100 100 99 93 86 88 91 100 100 95 6 87 56 95 83 18 100 84 97 89 98 100 100 100 100 100 100
100 100 100 99 100 100 100 100 100 100 95 88 81 99 97 100 100 97 100 97 95 100 99 91 100 100 100 37 83 33 77 99 11 100 94 93 100 100 100 100 100 100 100 100
100 100 100 100 100 100 100 97 90 100 100 100 92 65 61 75 79 85 97 100 85 72 60 76 100 100 86 59 46 5 44 100 82 89 92 100 100 100 100 100 100 100 100 100
100 100 100 100 100 100 99 52 89 69 55 37 47 54 97 44 53 71 100 100 94 100 96 74 100 99 100 99 43 35 53 38 80 96 83 58 100 100 100 100 100 100 100 100
100 100 100 100 100 98 92 80 75 16 18 99 100 100 75 96 100 100 100 100 100 96 99 97 100 100 100 100 73 63 79 78 83 100 74 38 51 92 100 100 100 100 100 100

GFSNW_prec_cloud_237.txt.gz
Cloud_Cover
5 5 5 5 2 5 3 5 44 5 0 61 5 32 5 0 5 5 18 71 95 100 100 52 100 100 83 30 98 100 95 66 92 100 91 58 99 100 100 100 99 94 100 100
5 5 5 5 5 2 5 17 5 5 5 71 41 5 4 3 5 27 24 83 95 83 100 11 56 97 72 5 94 18 95 100 80 99 18 21 39 97 100 90 100 100 100 89
5 5 5 5 5 4 2 22 100 59 7 5 12 60 5 4 4 4 19 72 97 100 68 99 69 100 96 90 67 0 6 59 99 100 100 100 100 100 100 100 100 98 100 99
6 5 5 5 5 25 4 31 54 11 87 6 6 32 28 5 68 83 100 100 100 100 71 8 74 100 100 100 55 53 33 22 93 74 100 87 96 58 27 93 44 88 85 100
5 5 37 5 5 5 13 90 46 5 5 5 5 56 3 42 60 88 46 100 100 100 100 100 100 100 100 100 100 100 88 54 43 5 2 5 11 2 5 4 3 99 5 91
5 5 5 5 5 5 96 6 5 6 13 5 11 40 57 20 94 25 86 100 100 100 100 100 100 99 100 100 100 100 99 96 100 62 100 100 6 6 55 16 5 1 26 6
100 74 5 5 5 25 94 47 92 75 29 26 18 23 5 5 58 70 77 100 100 95 46 86 53 36 14 15 14 88 100 100 90 75 95 100 99 100 56 5 0 2 0 0
100 42 16 5 5 5 56 100 93 98 72 20 34 17 26 6 74 90 96 98 90 23 57 93 89 39 12 3 0 68 100 100 100 100 100 92 86 100 89 100 62 97 97 32
100 100 100 7 6 6 37 69 33 100 91 23 60 68 77 96 100 99 100 100 94 100 100 100 100 100 78 59 31 82 5 77 100 100 100 100 100 100 99 85 30 100 97 100
100 100 100 100 81 85 44 95 76 100 100 42 69 90 77 78 94 99 100 100 95 100 99 100 100 100 100 96 100 100 25 31 88 96 100 100 100 100 90 97 75 98 100 100
100 100 100 100 100 100 81 69 100 98 100 100 86 61 67 68 72 93 86 81 90 100 100 98 100 100 100 100 100 100 100 100 100 100 100 84 99 100 100 85 36 48 28 63
100 100 100 100 100 100 100 58 100 100 100 100 100 51 7 5 9 90 100 87 100 100 100 99 96 100 68 100 100 100 100 100 64 82 84 88 70 100 79 88 100 100 100 100
100 100 100 100 100 100 100 88 100 100 100 100 100 100 13 46 13 34 92 82 100 91 100 100 96 100 96 100 98 100 100 100 100 100 18 80 100 97 100 100 100 100 100 100
100 100 100 100 100 100 100 94 100 100 100 100 100 100 24 12 4 22 99 94 97 100 89 100 100 100 100 100 86 94 100 100 31 68 12 100 100 100 100 100 100 98 100 98
100 100 100 100 100 98 94 100 100 100 100 100 100 100 96 25 29 5 98 100 100 100 97 93 100 100 100 89 99 73 100 99 100 25 98 100 23 90 100 100 100 95 95 66
100 100 100 100 100 100 100 100 100 100 100 100 100 100 82 20 32 84 99 99 100 100 91 83 94 91 100 93 13 10 100 100 100 92 100 100 100 100 95 100 96 88 69 59
100 100 100 100 100 100 100 100 100 100 100 100 100 100 88 62 100 99 100 100 100 99 100 90 99 98 100 98 81 56 74 82 84 100 98 27 97 100 76 17 46 71 59 86
100 100 100 100 100 100 100 100 100 100 100 100 100 100 62 75 100 100 100 100 100 100 88 98 98 100 98 86 1 32 71 100 100 100 92 26 5 5 15 6 57 73 100 74
100 100 100 100 100 100 100 100 100 100 100 100 100 91 99 66 86 80 99 83 100 72 90 97 100 94 74 24 94 99 100 100 100 100 17 5 5 27 76 70 94 100 100 100
100 100 100 100 100 100 100 100 100 100 100 92 100 56 80 65 99 88 100 90 92 100 76 96 99 80 87 99 100 100 23 42 98 100 45 14 34 90 100 100 100 100 100 100
100 100 100 100 100 100 100 100 100 100 100 100 96 92 98 98 98 100 98 100 98 100 93 99 85 84 98 96 100 91 5 6 48 69 20 100 100 100 100 100 100 100 100 100
100 100 100 100 100 100 100 100 100 100 100 99 89 98 92 100 99 100 100 100 91 93 67 94 42 67 98 97 77 5 5 5 21 63 23 100 100 100 100 100 100 100 100 100
100 100 100 100 100 100 100 100 100 100 100 98 100 92 100 98 98 96 100 100 82 41 95 82 77 86 100 100 100 16 6 5 28 100 71 100 100 100 100 100 100 100 100 100
100 100 100 100 100 100 100 100 100 100 100 100 93 96 94 94 92 94 95 58 90 100 79 46 89 100 100 100 98 44 14 5 18 96 85 92 100 100 100 100 100 100 100 100
100 100 100 100 100 100 100 100 100 100 100 92 89 100 100 100 100 100 77 98 91 64 93 98 100 100 90 80 45 57 56 46 45 97 100 97 100 100 100 100 100 100 100 100
100 100 100 100 100 100 100 100 100 96 100 99 91 100 99 92 98 78 72 42 70 84 98 98 100 88 100 52 84 100 34 60 49 92 98 99 100 88 100 100 100 100 100 100
100 100 100 100 100 100 100 100 100 100 100 100 100 71 92 89 100 99 99 97 100 100 99 97 100 76 66 99 100 95 73 96 68 55 100 100 100 100 100 100 100 100 100 100

GFSNW_prec_cloud_243.txt.gz
Cloud_Cover
15 9 5 5 5 5 5 5 28 0 0 21 89 71 4 0 0 0 5 3 39 61 0 5 5 0 11 40 38 0 4 98 100 100 100 100 93 89 99 100 100 100 100 100
30 38 25 5 5 5 5 5 5 11 0 36 76 2 0 0 0 0 5 3 5 1 18 38 4 0 57 30 2 11 5 21 100 100 100 100 95 100 98 100 51 100 100 100
78 5 8 30 11 54 14 50 6 21 28 1 6 5 5 4 0 0 1 4 4 5 52 5 2 0 14 0 3 53 7 98 76 100 100 100 100 100 100 100 98 11 100 100
100 100 66 5 5 5 7 59 24 5 26 28 1 4 10 0 5 5 5 0 4 38 54 5 1 5 2 0 0 0 54 81 65 3 32 95 25 100 100 100 100 42 92 100
100 100 100 100 55 22 53 24 39 5 5 11 5 4 5 4 0 20 26 40 32 94 51 8 5 4 1 0 0 0 1 4 2 4 0 32 90 100 100 100 100 100 56 1
100 100 100 58 53 50 37 5 5 5 5 5 5 5 2 2 7 0 4 1 28 9 12 5 5 4 0 0 0 0 2 4 5 5 0 0 0 3 96 100 100 99 43 93
100 100 100 100 100 95 50 5 8 75 93 100 24 5 5 54 51 7 5 57 20 0 0 0 0 0 0 0 0 0 0 0 5 5 1 60 5 4 2 91 78 79 87 99
100 100 100 100 100 100 100 94 97 100 100 63 10 22 49 35 30 12 5 23 94 51 5 4 5 3 4 4 0 0 0 10 5 39 5 0 0 65 28 30 74 5 5 9
100 100 100 100 100 100 100 100 100 100 100 16 5 43 5 9 5 5 5 92 12 5 3 5 12 5 0 16 2 5 72 10 5 5 27 44 3 96 88 96 62 5 80 26
100 100 100 100 100 100 100 100 100 100 100 49 45 57 5 5 5 61 70 50 22 5 5 5 19 5 5 14 2 5 100 96 25 67 64 6 0 12 10 100 55 40 95 14
100 100 100 100 100 100 100 100 100 100 100 90 58 57 44 52 5 6 31 34 5 29 5 9 5 5 10 10 0 5 56 100 13 56 43 30 3 10 89 93 90 47 100 30
100 100 100 100 100 100 100 100 96 90 100 94 90 94 65 37 6 53 17 51 58 44 11 35 24 81 5 5 5 0 1 38 99 87 13 0 3 2 2 62 25 77 10 4
100 100 100 100 100 100 100 100 94 100 100 100 100 100 84 81 31 44 52 8 35 5 99 51 72 19 5 5 3 2 0 2 6 4 0 0 1 4 5 19 3 5 8 14
100 100 100 100 100 100 100 92 100 100 100 100 100 100 93 81 97 83 64 6 13 34 5 75 93 42 5 5 4 5 2 0 0 0 1 4 1 5 38 81 9 49 40 73
100 100 100 100 100 100 100 83 100 100 100 100 100 100 100 99 100 42 76 40 5 5 41 80 100 99 75 5 5 5 1 0 5 5 14 98 39 89 78 82 97 19 5 14
100 100 100 100 100 100 100 100 100 100 100 100 100 100 100 100 100 100 100 100 74 5 5 29 34 9 76 54 5 0 1 5 67 75 79 53 99 97 100 50 5 5 4 0
100 100 100 100 100 100 100 100 100 100 94 100 100 100 100 100 100 100 100 96 99 74 99 77 5 5 82 98 48 0 0 0 12 45 68 86 6 4 2 5 5 5 5 5
100 100 100 100 100 100 100 100 100 99 100 100 100 100 100 100 100 100 100 100 100 93 94 36 5 5 5 20 0 0 0 9 5 99 60 7 0 0 5 5 9 90 54 21
100 100 100 100 100 100 100 100 100 84 80 100 100 100 100 100 100 100 100 100 100 100 47 6 5 7 10 5 0 0 5 93 83 85 8 0 0 4 5 5 80 45 93 100
100 100 100 100 100 100 100 100 100 100 100 99 100 100 100 100 100 100 100 100 99 82 59 9 51 17 0 5 4 0 93 99 100 99 5 5 5 5 5 7 44 88 100 100
100 100 100 100 100 100 100 100 100 100 100 100 100 100 100 100 100 100 100 100 98 78 85 34 90 18 5 5 5 20 100 98 79 11 5 5 0 3 9 74 99 100 100 100
100 100 100 100 100 100 100 100 100 100 100 100 100 100 100 100 100 100 100 87 74 93 68 93 36 4 5 5 5 100 100 100 42 5 1 0 2 5 87 100 100 100 100 100
100 100 100 100 100 100 100 100 100 100 100 100 100 100 100 100 100 100 70 64 82 28 34 47 5 5 15 5 81 93 100 69 6 56 5 0 5 5 91 100 100 100 100 100
100 100 100 100 100 100 100 100 100 100 100 100 100 100 100 100 95 78 100 85 48 36 94 76 52 98 97 99 100 100 100 100 100 75 37 34 100 81 63 100 100 100 100 100
100 100 100 100 100 100 100 100 100 100 100 100 100 100 100 100 100 100 96 97 22 22 96 99 100 100 100 100 100 100 84 12 12 17 5 93 100 89 99 100 100 100 100 100
100 100 100 100 100 100 100 100 100 100 100 100 100 100 100 100 100 98 100 77 83 99 100 99 99 96 94 100 93 80 96 45 5 23 12 5 3 14 67 44 100 100 100 100
100 100 100 100 100 100 100 100 100 100 100 100 100 100 100 100 100 99 98 95 90 94 100 99 98 95 99 66 63 68 80 60 99 50 5 4 5 5 5 5 9 100 100 100